K0WOI Weather Reports


Display with metric or nautical units.
time (UTC)temp
F
wind
direction
speed
MPH
gust
MPH
rain 1hr
in
rain 24hr
in
rain mn
in
humidity
%
barometer
mb
20260901024315 77 81 0.0 0.0 0.00 0.00 0.00 97 1012.8
20260901023813 78 81 0.0 0.0 0.00 0.00 0.00 97 1012.8
20260901023308 78 81 0.0 0.0 0.00 0.00 0.00 97 1013.1
20260901022804 78 81 0.0 0.0 0.00 0.00 0.00 97 1012.9
20260901022300 79 81 0.0 0.0 0.00 0.00 0.00 96 1012.9
20260901021754 79 81 0.0 0.0 0.00 0.00 0.00 95 1012.7
20260901021250 79 81 0.0 0.0 0.00 0.00 0.00 94 1012.9
20260901020745 80 81 0.0 0.0 0.00 0.00 0.00 94 1013.0
20260901020240 80 81 0.0 0.0 0.00 0.00 0.00 93 1012.5
20260901015735 80 81 0.0 1.0 0.00 0.00 0.00 94 1012.8
20260901015231 80 81 0.0 1.0 0.00 0.00 0.00 93 1012.6
20260901014730 81 81 0.0 0.0 0.00 0.00 0.00 93 1012.8
20260901014226 81 81 0.0 0.0 0.00 0.00 0.00 93 1012.5
20260901013722 81 81 0.0 1.0 0.00 0.00 0.00 93 1012.6
20260901013217 81 81 0.0 0.0 0.00 0.00 0.00 93 1012.6
20260901012712 81 81 0.0 0.0 0.00 0.00 0.00 92 1012.4
20260901012207 82 81 0.0 0.0 0.00 0.00 0.00 92 1012.5
20260901011703 82 81 1.0 1.0 0.00 0.00 0.00 92 1012.2
20260901011202 82 81 0.0 0.0 0.00 0.00 0.00 91 1012.3
20260901010657 82 82 0.0 0.0 0.00 0.00 0.00 90 1012.6
20260901010151 82 82 0.0 0.0 0.00 0.00 0.00 90 1012.3
20260901005650 83 82 0.0 1.0 0.00 0.00 0.00 90 1012.3
20260901005146 83 82 0.0 0.0 0.00 0.00 0.00 89 1012.2
20260901004645 83 82 0.0 1.0 0.00 0.00 0.00 89 1012.1
20260901004140 83 82 0.0 0.0 0.00 0.00 0.00 89 1012.5
20260901003635 84 82 0.0 0.0 0.00 0.00 0.00 88 1012.4
20260901003133 84 82 0.0 0.0 0.00 0.00 0.00 87 1012.2
20260901002628 85 82 0.0 0.0 0.00 0.00 0.00 86 1012.2
20260901002122 85 82 0.0 0.0 0.00 0.00 0.00 85 1012.0
20260901001618 85 82 0.0 0.0 0.00 0.00 0.00 85 1012.1
20260901001113 85 82 0.0 0.0 0.00 0.00 0.00 85 1012.3
20260901000608 85 83 1.0 1.0 0.00 0.00 0.00 84 1012.1
20260901000104 85 82 0.0 0.0 0.00 0.00 0.00 84 1012.4
20260831235557 85 82 1.0 1.0 0.00 0.00 0.00 84 1012.3
20260831235052 86 82 0.0 1.0 0.00 0.00 0.00 83 1012.2
20260831234546 86 82 0.0 0.0 0.00 0.00 0.00 82 1012.1
20260831234043 86 83 0.0 1.0 0.00 0.00 0.00 82 1012.1
20260831233537 86 83 1.0 1.0 0.00 0.00 0.00 81 1011.9
20260831233033 86 84 2.0 2.0 0.00 0.00 0.00 81 1012.0
20260831232528 87 83 1.0 1.0 0.00 0.00 0.00 81 1011.9
20260831232024 87 84 3.0 3.0 0.00 0.00 0.00 80 1012.0
20260831231520 87 83 0.0 0.0 0.00 0.00 0.00 80 1012.1
20260831231016 87 83 1.0 1.0 0.00 0.00 0.00 79 1011.9
20260831230510 87 84 1.0 2.0 0.00 0.00 0.00 79 1012.0
20260831230005 88 83 2.0 2.0 0.00 0.00 0.00 79 1012.0
20260831225500 89 84 1.0 2.0 0.00 0.00 0.00 77 1012.3
20260831224954 90 84 0.0 1.0 0.00 0.00 0.00 75 1012.0
20260831224450 90 84 2.0 2.0 0.00 0.00 0.00 74 1012.2
20260831223944 90 86 4.0 5.0 0.00 0.00 0.00 72 1011.9
20260831223440 90 84 1.0 2.0 0.00 0.00 0.00 73 1011.8
20260831222936 90 84 2.0 3.0 0.00 0.00 0.00 71 1011.8
20260831222431 91 91 4.0 6.0 0.00 0.00 0.00 72 1011.8
20260831221926 91 84 1.0 1.0 0.00 0.00 0.00 74 1011.9
20260831221422 92 85 2.0 3.0 0.00 0.00 0.00 72 1012.0
20260831220917 91 84 2.0 2.0 0.00 0.00 0.00 71 1012.0
20260831220413 91 85 3.0 3.0 0.00 0.00 0.00 72 1011.9
20260831215908 91 84 1.0 1.0 0.00 0.00 0.00 72 1011.9
20260831215403 91 86 4.0 5.0 0.00 0.00 0.00 70 1011.9
20260831214859 91 84 1.0 2.0 0.00 0.00 0.00 69 1011.8
20260831214357 91 85 3.0 3.0 0.00 0.00 0.00 70 1011.7
20260831213852 92 86 4.0 5.0 0.00 0.00 0.00 70 1011.5
20260831213349 91 85 2.0 2.0 0.00 0.00 0.00 71 1011.7
20260831212843 90 86 3.0 3.0 0.00 0.00 0.00 72 1011.8
20260831212340 91 90 4.0 5.0 0.00 0.00 0.00 73 1011.8
20260831211839 90 84 3.0 3.0 0.00 0.00 0.00 74 1011.6
20260831211334 92 95 7.0 8.0 0.00 0.00 0.00 72 1011.7
20260831210833 91 87 3.0 3.0 0.00 0.00 0.00 72 1011.9
20260831210330 92 84 1.0 2.0 0.00 0.00 0.00 74 1011.8
20260831205829 91 86 3.0 3.0 0.00 0.00 0.00 72 1011.9
20260831205325 91 86 2.0 2.0 0.00 0.00 0.00 71 1012.0
20260831204820 92 89 1.0 3.0 0.00 0.00 0.00 71 1011.7
20260831204319 92 85 1.0 1.0 0.00 0.00 0.00 74 1012.0
20260831203818 92 84 4.0 5.0 0.00 0.00 0.00 71 1012.0
20260831203313 92 83 1.0 1.0 0.00 0.00 0.00 74 1011.9
20260831202811 91 83 1.0 2.0 0.00 0.00 0.00 76 1011.8
20260831202307 91 84 2.0 2.0 0.00 0.00 0.00 73 1011.9
20260831201807 91 84 1.0 1.0 0.00 0.00 0.00 74 1011.8
20260831201305 91 85 3.0 3.0 0.00 0.00 0.00 72 1011.8
20260831200801 91 84 1.0 2.0 0.00 0.00 0.00 74 1011.9
20260831200256 90 84 4.0 6.0 0.00 0.00 0.00 74 1011.6
20260831195751 89 83 1.0 1.0 0.00 0.00 0.00 75 1011.8
20260831195247 89 84 2.0 2.0 0.00 0.00 0.00 75 1012.0
20260831194742 89 84 3.0 3.0 0.00 0.00 0.00 73 1011.8
20260831194238 90 84 1.0 1.0 0.00 0.00 0.00 71 1011.9
20260831193731 91 85 3.0 5.0 0.00 0.00 0.00 69 1011.9
20260831193227 91 84 1.0 1.0 0.00 0.00 0.00 68 1011.9
20260831192722 92 84 1.0 1.0 0.00 0.00 0.00 69 1011.7
20260831192217 91 84 1.0 1.0 0.00 0.00 0.00 69 1012.0
20260831191713 90 84 3.0 3.0 0.00 0.00 0.00 70 1012.0
20260831191209 90 84 2.0 3.0 0.00 0.00 0.00 72 1011.9
20260831190704 91 83 0.0 1.0 0.00 0.00 0.00 74 1011.7
20260831190203 91 85 4.0 5.0 0.00 0.00 0.00 73 1011.9
20260831185659 90 83 1.0 1.0 0.00 0.00 0.00 74 1011.8
20260831185154 90 83 1.0 1.0 0.00 0.00 0.00 73 1011.8
20260831184653 89 83 2.0 2.0 0.00 0.00 0.00 75 1011.6
20260831184149 89 83 1.0 1.0 0.00 0.00 0.00 75 1011.9
20260831183649 89 86 4.0 5.0 0.00 0.00 0.00 74 1011.8
20260831183148 89 84 3.0 5.0 0.00 0.00 0.00 74 1012.0
20260831182647 89 83 1.0 1.0 0.00 0.00 0.00 74 1012.1
20260831182143 88 83 1.0 2.0 0.00 0.00 0.00 75 1012.0
20260831181638 88 83 0.0 1.0 0.00 0.00 0.00 74 1012.1
20260831181137 87 83 1.0 1.0 0.00 0.00 0.00 77 1012.1
20260831180633 88 84 2.0 3.0 0.00 0.00 0.00 74 1012.0
20260831180128 88 84 3.0 3.0 0.00 0.00 0.00 73 1012.2
20260831175622 88 84 2.0 3.0 0.00 0.00 0.00 74 1012.1
20260831175120 88 84 3.0 5.0 0.00 0.00 0.00 74 1012.0
20260831174614 88 83 1.0 1.0 0.00 0.00 0.00 73 1011.9
20260831174114 88 83 1.0 2.0 0.00 0.00 0.00 75 1011.6
20260831173613 87 83 1.0 2.0 0.00 0.00 0.00 75 1011.8
20260831173109 88 82 1.0 1.0 0.00 0.00 0.00 73 1011.4
20260831172609 88 82 0.0 1.0 0.00 0.00 0.00 71 1011.3
20260831172103 88 83 1.0 1.0 0.00 0.00 0.00 71 1011.4
20260831171559 87 82 0.0 1.0 0.00 0.00 0.00 72 1011.8
20260831171056 87 83 0.0 1.0 0.00 0.00 0.00 73 1011.8
20260831170552 87 82 0.0 0.0 0.00 0.00 0.00 72 1011.6
20260831170049 86 82 0.0 0.0 0.00 0.00 0.00 75 1011.7
20260831165549 86 83 2.0 2.0 0.00 0.00 0.00 76 1011.8
20260831165046 85 82 1.0 1.0 0.00 0.00 0.00 78 1011.9
20260831164541 85 82 0.0 0.0 0.00 0.00 0.00 78 1011.5
20260831164037 85 82 0.0 0.0 0.00 0.00 0.00 76 1011.6
20260831163532 85 82 0.0 0.0 0.00 0.00 0.00 76 1011.6
20260831163028 85 82 1.0 1.0 0.00 0.00 0.00 74 1011.3
20260831162526 85 82 3.0 3.0 0.00 0.00 0.00 75 1011.5
20260831162024 84 81 1.0 1.0 0.00 0.00 0.00 76 1011.2
20260831161521 84 81 0.0 0.0 0.00 0.00 0.00 78 1011.0
20260831161016 83 81 1.0 1.0 0.00 0.00 0.00 77 1011.2
20260831160516 83 81 0.0 1.0 0.00 0.00 0.00 78 1011.4
20260831160012 83 80 3.0 3.0 0.00 0.00 0.00 78 1011.3
20260831155506 83 81 1.0 1.0 0.00 0.00 0.00 78 1011.0
20260831155001 82 82 0.0 0.0 0.00 0.00 0.00 80 1010.9
20260831154458 82 83 3.0 3.0 0.00 0.00 0.00 77 1011.2
20260831153956 82 82 1.0 1.0 0.00 0.00 0.00 79 1011.2
20260831153452 82 82 0.0 0.0 0.00 0.00 0.00 80 1011.0
20260831152949 81 82 1.0 1.0 0.00 0.00 0.00 79 1011.6
20260831152443 80 82 1.0 2.0 0.00 0.00 0.00 78 1011.5
20260831151939 80 85 2.0 5.0 0.00 0.00 0.00 80 1011.5
20260831151437 80 82 2.0 2.0 0.00 0.00 0.00 79 1012.0
20260831150933 80 82 0.0 0.0 0.00 0.00 0.00 80 1011.9
20260831150429 79 83 2.0 2.0 0.00 0.00 0.00 79 1011.7
20260831145928 78 82 0.0 1.0 0.00 0.00 0.00 80 1011.5
20260831145424 78 82 1.0 1.0 0.00 0.00 0.00 81 1011.6
20260831144919 78 83 2.0 3.0 0.00 0.00 0.00 81 1011.8
20260831144409 77 84 2.0 3.0 0.00 0.00 0.00 82 1011.8
20260831143904 77 82 1.0 2.0 0.00 0.00 0.00 83 1011.5
20260831143359 76 82 1.0 1.0 0.00 0.00 0.00 83 1011.5
20260831142854 76 82 2.0 2.0 0.00 0.00 0.00 84 1011.5
20260831142350 75 83 3.0 3.0 0.00 0.00 0.00 85 1011.8
20260831141844 75 81 0.0 0.0 0.00 0.00 0.00 85 1011.4
20260831141338 75 81 0.0 0.0 0.00 0.00 0.00 85 1011.4
20260831140834 75 81 1.0 1.0 0.00 0.00 0.00 86 1011.4
20260831140328 74 81 0.0 0.0 0.00 0.00 0.00 86 1011.7
20260831135826 75 81 0.0 1.0 0.00 0.00 0.00 87 1011.6
20260831135322 75 81 0.0 1.0 0.00 0.00 0.00 85 1011.4
20260831134817 75 81 0.0 0.0 0.00 0.00 0.00 84 1011.3
20260831134314 75 81 0.0 0.0 0.00 0.00 0.00 85 1010.9
20260831133812 75 81 0.0 0.0 0.00 0.00 0.00 83 1010.8
20260831133307 75 81 0.0 0.0 0.00 0.00 0.00 83 1010.9
20260831132802 74 81 0.0 1.0 0.00 0.00 0.00 84 1011.3
20260831132257 74 81 0.0 0.0 0.00 0.00 0.00 85 1011.3
20260831131756 74 81 0.0 1.0 0.00 0.00 0.00 86 1011.2
20260831131253 73 81 0.0 0.0 0.00 0.00 0.00 86 1010.8
20260831130748 73 82 2.0 3.0 0.00 0.00 0.00 86 1010.9
20260831130243 73 80 1.0 1.0 0.00 0.00 0.00 87 1011.0
20260831125742 73 80 0.0 0.0 0.00 0.00 0.00 87 1010.6
20260831125238 73 81 0.0 0.0 0.00 0.00 0.00 87 1010.6
20260831124732 73 81 0.0 0.0 0.00 0.00 0.00 88 1010.7
20260831124229 73 81 0.0 0.0 0.00 0.00 0.00 87 1010.4
20260831123728 73 81 0.0 0.0 0.00 0.00 0.00 87 1010.5
20260831123227 72 81 0.0 0.0 0.00 0.00 0.00 87 1010.3
20260831122722 72 81 0.0 0.0 0.00 0.00 0.00 87 1010.2
20260831122218 72 80 1.0 1.0 0.00 0.00 0.00 88 1010.2
20260831121717 72 80 0.0 0.0 0.00 0.00 0.00 88 1009.7
20260831121214 72 80 0.0 0.0 0.00 0.00 0.00 88 1009.8
20260831120709 72 81 0.0 0.0 0.00 0.00 0.00 88 1010.0
20260831120203 72 81 0.0 0.0 0.00 0.00 0.00 88 1009.7
20260831115659 72 81 0.0 0.0 0.00 0.00 0.00 87 1009.9
20260831115155 72 81 0.0 0.0 0.00 0.00 0.00 86 1009.9
20260831114654 73 81 0.0 0.0 0.00 0.00 0.00 86 1009.8
20260831114148 73 81 0.0 0.0 0.00 0.00 0.00 86 1009.4
20260831113648 73 81 0.0 0.0 0.00 0.00 0.00 85 1009.8
20260831113143 73 82 0.0 0.0 0.00 0.00 0.00 85 1009.6
20260831112642 73 81 0.0 0.0 0.00 0.00 0.00 85 1009.7
20260831112138 73 82 0.0 0.0 0.00 0.00 0.00 84 1009.8
20260831111634 73 81 1.0 1.0 0.00 0.00 0.00 84 1009.8
20260831111130 73 81 0.0 0.0 0.00 0.00 0.00 85 1009.4
20260831110625 73 82 0.0 0.0 0.00 0.00 0.00 84 1009.4
20260831110120 73 82 0.0 0.0 0.00 0.00 0.00 85 1009.5
20260831105619 73 82 0.0 0.0 0.00 0.00 0.00 85 1009.4
20260831105114 73 81 0.0 0.0 0.00 0.00 0.00 85 1009.4
20260831104610 73 82 2.0 2.0 0.00 0.00 0.00 85 1009.6
20260831104106 73 81 0.0 0.0 0.00 0.00 0.00 84 1009.4
20260831103601 74 82 1.0 2.0 0.00 0.00 0.00 84 1009.3
20260831103056 74 81 1.0 2.0 0.00 0.00 0.00 83 1009.4
20260831102550 74 83 2.0 3.0 0.00 0.00 0.00 82 1009.3
20260831102046 75 82 0.0 1.0 0.00 0.00 0.00 82 1009.4
20260831101540 75 82 1.0 2.0 0.00 0.00 0.00 82 1009.4
20260831101037 75 82 1.0 1.0 0.00 0.00 0.00 81 1009.4
20260831100532 75 82 0.0 1.0 0.00 0.00 0.00 81 1008.9
20260831100029 75 84 3.0 3.0 0.00 0.00 0.00 81 1009.2
20260831095527 75 82 1.0 1.0 0.00 0.00 0.00 81 1009.1
20260831095021 75 82 1.0 1.0 0.00 0.00 0.00 81 1009.0
20260831094518 75 82 0.0 0.0 0.00 0.00 0.00 81 1009.0
20260831094014 75 82 1.0 2.0 0.00 0.00 0.00 81 1009.1
20260831093513 75 82 1.0 1.0 0.00 0.00 0.00 81 1009.1
20260831093010 75 83 3.0 3.0 0.00 0.00 0.00 81 1009.1
20260831092505 75 83 2.0 3.0 0.00 0.00 0.00 80 1009.1
20260831092001 75 82 1.0 1.0 0.00 0.00 0.00 81 1009.1
20260831091455 76 82 1.0 1.0 0.00 0.00 0.00 81 1008.8
20260831090951 76 82 1.0 2.0 0.00 0.00 0.00 80 1009.1
20260831090447 76 85 1.0 1.0 0.00 0.00 0.00 80 1009.0
20260831085943 76 85 3.0 5.0 0.00 0.00 0.00 80 1009.0
20260831085438 76 84 1.0 1.0 0.00 0.00 0.00 80 1009.0
20260831084937 76 84 1.0 1.0 0.00 0.00 0.00 80 1009.1
20260831084433 76 85 2.0 2.0 0.00 0.00 0.00 80 1009.2
20260831083930 77 84 1.0 2.0 0.00 0.00 0.00 80 1009.2
20260831083425 77 83 0.0 0.0 0.00 0.00 0.00 79 1009.2
20260831082924 77 84 2.0 2.0 0.00 0.00 0.00 79 1008.9
20260831082424 77 84 3.0 3.0 0.00 0.00 0.00 79 1009.0
20260831081919 77 83 1.0 1.0 0.00 0.00 0.00 80 1009.1
20260831081415 77 83 1.0 1.0 0.00 0.00 0.00 80 1008.8
20260831080911 77 82 1.0 1.0 0.00 0.00 0.00 80 1008.9
20260831080406 77 82 1.0 1.0 0.00 0.00 0.00 80 1008.9
20260831075901 77 84 3.0 6.0 0.00 0.00 0.00 80 1008.9
20260831075356 77 83 1.0 1.0 0.00 0.00 0.00 80 1008.9
20260831074851 77 82 1.0 1.0 0.00 0.00 0.00 80 1008.9
20260831074350 77 82 1.0 2.0 0.00 0.00 0.00 80 1009.0
20260831073846 77 82 2.0 2.0 0.00 0.00 0.00 81 1009.1
20260831073345 77 82 1.0 1.0 0.00 0.00 0.00 82 1009.1
20260831072840 77 82 1.0 1.0 0.00 0.00 0.00 81 1009.3
20260831072336 77 83 1.0 2.0 0.00 0.00 0.00 82 1009.2
20260831071832 77 83 1.0 1.0 0.00 0.00 0.00 82 1009.1
20260831071331 77 83 1.0 2.0 0.00 0.00 0.00 83 1009.1
20260831070826 77 82 0.0 1.0 0.00 0.00 0.00 83 1009.1
20260831070325 77 83 1.0 1.0 0.00 0.00 0.00 84 1009.2
20260831065824 77 82 1.0 1.0 0.00 0.00 0.00 84 1009.1
20260831065322 77 83 1.0 1.0 0.00 0.00 0.00 84 1009.2
20260831064817 77 82 1.0 1.0 0.00 0.00 0.00 84 1009.1
20260831064313 77 82 0.0 1.0 0.00 0.00 0.00 84 1009.2
20260831063809 76 82 0.0 1.0 0.00 0.00 0.00 85 1009.2
20260831063304 77 82 1.0 1.0 0.00 0.00 0.00 85 1009.3
20260831062803 76 82 0.0 0.0 0.00 0.00 0.00 86 1009.4
20260831062258 77 82 0.0 0.0 0.00 0.00 0.00 86 1009.4
20260831061757 77 82 0.0 1.0 0.00 0.00 0.00 86 1009.4
20260831061251 77 82 1.0 1.0 0.00 0.00 0.00 86 1009.2
20260831060748 77 82 1.0 1.0 0.00 0.00 0.00 86 1009.3
20260831060247 77 82 0.0 0.0 0.00 0.00 0.00 86 1009.4
20260831055747 77 82 0.0 0.0 0.00 0.00 0.00 86 1009.1
20260831055242 77 82 0.0 0.0 0.00 0.00 0.00 86 1009.4
20260831054737 77 82 0.0 0.0 0.00 0.00 0.00 86 1009.2
20260831054232 77 82 0.0 0.0 0.00 0.00 0.00 86 1009.3
20260831053731 77 82 0.0 1.0 0.00 0.00 0.00 86 1009.3
20260831053230 77 82 1.0 1.0 0.00 0.00 0.00 87 1009.2
20260831052729 77 82 0.0 0.0 0.00 0.00 0.00 87 1009.1
20260831052223 77 82 1.0 2.0 0.00 0.00 0.00 87 1009.1
20260831051722 77 82 1.0 1.0 0.00 0.00 0.00 87 1009.3
20260831051220 77 82 0.0 1.0 0.00 0.00 0.00 87 1009.2
20260831050715 77 82 0.0 0.0 0.00 0.00 0.00 87 1009.3
20260831050214 77 82 0.0 1.0 0.00 0.00 0.00 87 1009.1
20260831045709 78 82 0.0 0.0 0.00 0.02 0.02 87 1009.0
20260831045204 78 82 0.0 1.0 0.00 0.02 0.02 87 1009.2
20260831044659 78 82 0.0 1.0 0.00 0.02 0.02 87 1009.2
20260831044154 78 82 0.0 0.0 0.00 0.02 0.02 87 1009.4
20260831043649 78 82 0.0 0.0 0.00 0.02 0.02 87 1009.1
20260831043144 78 82 0.0 0.0 0.00 0.02 0.02 86 1009.1
20260831042643 78 82 0.0 1.0 0.00 0.02 0.02 87 1009.1
20260831042138 79 82 0.0 1.0 0.00 0.02 0.02 87 1009.3
20260831041633 79 82 1.0 1.0 0.00 0.02 0.02 87 1008.9
20260831041127 78 82 1.0 2.0 0.00 0.02 0.02 88 1009.1
20260831040622 78 82 1.0 1.0 0.00 0.02 0.02 88 1009.2
20260831040121 78 82 0.0 0.0 0.00 0.02 0.02 88 1008.9
20260831035620 79 82 0.0 0.0 0.00 0.02 0.02 89 1009.1
20260831035115 79 82 0.0 0.0 0.00 0.02 0.02 89 1009.2
20260831034614 79 82 0.0 0.0 0.00 0.02 0.02 89 1008.9
20260831034109 79 82 1.0 1.0 0.00 0.02 0.02 89 1009.1
20260831033605 79 82 0.0 1.0 0.00 0.02 0.02 88 1009.3
20260831033100 79 82 1.0 1.0 0.00 0.02 0.02 89 1009.3
20260831032559 79 82 1.0 2.0 0.00 0.02 0.02 88 1009.1
20260831032055 79 82 0.0 0.0 0.00 0.02 0.02 88 1009.1
20260831031555 79 82 0.0 0.0 0.00 0.02 0.02 88 1009.4
20260831031054 80 82 1.0 1.0 0.00 0.02 0.02 88 1009.3
20260831030553 80 82 0.0 0.0 0.00 0.02 0.02 88 1008.9
20260831030052 80 82 0.0 0.0 0.00 0.02 0.02 88 1009.3
20260831025551 80 82 0.0 0.0 0.00 0.02 0.02 88 1009.2
20260831025046 80 82 0.0 0.0 0.00 0.02 0.02 88 1009.2